Time,TemperatureF,DewpointF,PressureIn,WindDirection,WindDirectionDegrees,WindSpeedMPH,WindSpeedGustMPH,Humidity,HourlyPrecipIn,Conditions,Clouds,dailyrainin,SoftwareType,DateUTC
2013-03-27 00:00:00,46.0,-99.9,30.36,NNE,30,21.0,-999.0,-999,-99.99,,,-99.99,,2013-03-27 05:00:00,
2013-03-27 00:13:00,47.0,-99.9,30.35,NNE,30,21.0,-999.0,-999,-99.99,,,-99.99,,2013-03-27 05:13:00,
2013-03-27 00:23:00,47.0,-99.9,30.35,NNE,30,21.0,-999.0,-999,-99.99,,,-99.99,,2013-03-27 05:23:00,
2013-03-27 00:30:00,46.0,-99.9,30.36,NNE,30,21.0,-999.0,-999,-99.99,,,-99.99,,2013-03-27 05:30:00,
2013-03-27 00:42:00,46.0,-99.9,30.36,NNE,30,21.0,-999.0,-999,-99.99,,,-99.99,,2013-03-27 05:42:00,
2013-03-27 00:53:00,46.0,-99.9,30.36,NNE,30,21.0,-999.0,-999,-99.99,,,-99.99,,2013-03-27 05:53:00,
2013-03-27 01:23:00,46.0,-99.9,30.36,NNE,30,21.0,-999.0,-999,-99.99,,,-99.99,,2013-03-27 06:23:00,
2013-03-27 01:30:00,45.0,-99.9,30.36,NNE,30,18.0,-999.0,-999,-99.99,,,-99.99,,2013-03-27 06:30:00,
2013-03-27 02:00:00,44.0,-99.9,30.36,NNE,30,20.0,-999.0,-999,-99.99,,,-99.99,,2013-03-27 07:00:00,
2013-03-27 02:22:00,45.0,-99.9,30.36,NNE,30,18.0,-999.0,-999,-99.99,,,-99.99,,2013-03-27 07:22:00,
2013-03-27 02:30:00,44.0,-99.9,30.35,NNE,30,21.0,-999.0,-999,-99.99,,,-99.99,,2013-03-27 07:30:00,
2013-03-27 02:43:00,44.0,-99.9,30.36,NNE,30,20.0,-999.0,-999,-99.99,,,-99.99,,2013-03-27 07:43:00,
2013-03-27 02:54:00,44.0,-99.9,30.36,NNE,30,20.0,-999.0,-999,-99.99,,,-99.99,,2013-03-27 07:54:00,
2013-03-27 03:00:00,43.0,-99.9,30.35,NNE,30,20.0,-999.0,-999,-99.99,,,-99.99,,2013-03-27 08:00:00,
2013-03-27 03:22:00,44.0,-99.9,30.35,NNE,30,21.0,-999.0,-999,-99.99,,,-99.99,,2013-03-27 08:22:00,
2013-03-27 03:30:00,43.0,-99.9,30.35,NNE,30,20.0,-999.0,-999,-99.99,,,-99.99,,2013-03-27 08:30:00,
2013-03-27 03:43:00,43.0,-99.9,30.35,NNE,30,20.0,-999.0,-999,-99.99,,,-99.99,,2013-03-27 08:43:00,
2013-03-27 03:52:00,43.0,-99.9,30.35,NNE,30,20.0,-999.0,-999,-99.99,,,-99.99,,2013-03-27 08:52:00,
2013-03-27 04:00:00,43.0,-99.9,30.35,NE,40,18.0,-999.0,-999,-99.99,,,-99.99,,2013-03-27 09:00:00,
2013-03-27 04:12:00,43.0,-99.9,30.35,NNE,30,20.0,-999.0,-999,-99.99,,,-99.99,,2013-03-27 09:12:00,
2013-03-27 04:22:00,43.0,-99.9,30.35,NNE,30,20.0,-999.0,-999,-99.99,,,-99.99,,2013-03-27 09:22:00,
2013-03-27 04:30:00,42.0,-99.9,30.35,NE,40,21.0,-999.0,-999,-99.99,,,-99.99,,2013-03-27 09:30:00,
2013-03-27 04:42:00,43.0,-99.9,30.35,NE,40,18.0,-999.0,-999,-99.99,,,-99.99,,2013-03-27 09:42:00,
2013-03-27 04:52:00,43.0,-99.9,30.35,NE,40,18.0,-999.0,-999,-99.99,,,-99.99,,2013-03-27 09:52:00,
2013-03-27 05:00:00,42.0,-99.9,30.35,NE,40,21.0,-999.0,-999,-99.99,,,-99.99,,2013-03-27 10:00:00,
2013-03-27 05:23:00,42.0,-99.9,30.35,NE,40,21.0,-999.0,-999,-99.99,,,-99.99,,2013-03-27 10:23:00,
2013-03-27 05:30:00,42.0,-99.9,30.36,NE,40,21.0,-999.0,-999,-99.99,,,-99.99,,2013-03-27 10:30:00,
2013-03-27 05:42:00,42.0,-99.9,30.35,NE,40,21.0,-999.0,-999,-99.99,,,-99.99,,2013-03-27 10:42:00,
2013-03-27 05:53:00,42.0,-99.9,30.35,NE,40,21.0,-999.0,-999,-99.99,,,-99.99,,2013-03-27 10:53:00,
2013-03-27 06:00:00,42.0,-99.9,30.37,NE,40,18.0,-999.0,-999,-99.99,,,-99.99,,2013-03-27 11:00:00,
2013-03-27 06:23:00,42.0,-99.9,30.36,NE,40,21.0,-999.0,-999,-99.99,,,-99.99,,2013-03-27 11:23:00,
2013-03-27 06:30:00,42.0,-99.9,30.39,NE,40,17.0,-999.0,-999,-99.99,,,-99.99,,2013-03-27 11:30:00,
2013-03-27 06:43:00,42.0,-99.9,30.37,NE,40,18.0,-999.0,-999,-99.99,,,-99.99,,2013-03-27 11:43:00,
2013-03-27 06:53:00,42.0,-99.9,30.37,NE,40,18.0,-999.0,-999,-99.99,,,-99.99,,2013-03-27 11:53:00,
2013-03-27 07:00:00,42.0,-99.9,30.40,NE,40,18.0,-999.0,-999,-99.99,,,-99.99,,2013-03-27 12:00:00,
2013-03-27 07:23:00,42.0,-99.9,30.39,NE,40,17.0,-999.0,-999,-99.99,,,-99.99,,2013-03-27 12:23:00,
2013-03-27 07:30:00,43.0,-99.9,30.41,NE,40,17.0,-999.0,-999,-99.99,,,-99.99,,2013-03-27 12:30:00,
2013-03-27 07:44:00,42.0,-99.9,30.40,NE,40,18.0,-999.0,-999,-99.99,,,-99.99,,2013-03-27 12:44:00,
2013-03-27 07:52:00,42.0,-99.9,30.40,NE,40,18.0,-999.0,-999,-99.99,,,-99.99,,2013-03-27 12:52:00,
2013-03-27 08:00:00,44.0,-99.9,30.41,NE,50,16.0,-999.0,-999,-99.99,,,-99.99,,2013-03-27 13:00:00,
2013-03-27 08:23:00,43.0,-99.9,30.41,NE,40,17.0,-999.0,-999,-99.99,,,-99.99,,2013-03-27 13:23:00,
2013-03-27 08:30:00,44.0,-99.9,30.42,NE,50,16.0,-999.0,-999,-99.99,,,-99.99,,2013-03-27 13:30:00,
2013-03-27 08:42:00,44.0,-99.9,30.41,NE,50,16.0,-999.0,-999,-99.99,,,-99.99,,2013-03-27 13:42:00,
2013-03-27 08:53:00,44.0,-99.9,30.41,NE,50,16.0,-999.0,-999,-99.99,,,-99.99,,2013-03-27 13:53:00,
2013-03-27 09:00:00,44.0,-99.9,30.42,NE,50,14.0,-999.0,-999,-99.99,,,-99.99,,2013-03-27 14:00:00,
2013-03-27 09:12:00,44.0,-99.9,30.42,NE,50,16.0,-999.0,-999,-99.99,,,-99.99,,2013-03-27 14:12:00,
2013-03-27 09:22:00,44.0,-99.9,30.42,NE,50,16.0,-999.0,-999,-99.99,,,-99.99,,2013-03-27 14:22:00,
2013-03-27 09:30:00,45.0,-99.9,30.44,NE,40,15.0,-999.0,-999,-99.99,,,-99.99,,2013-03-27 14:30:00,
2013-03-27 09:43:00,44.0,-99.9,30.42,NE,50,14.0,-999.0,-999,-99.99,,,-99.99,,2013-03-27 14:43:00,
2013-03-27 09:52:00,44.0,-99.9,30.42,NE,50,14.0,-999.0,-999,-99.99,,,-99.99,,2013-03-27 14:52:00,
2013-03-27 10:00:00,46.0,-99.9,30.44,NNE,30,13.0,-999.0,-999,-99.99,,,-99.99,,2013-03-27 15:00:00,
2013-03-27 10:23:00,45.0,-99.9,30.44,NE,40,15.0,-999.0,-999,-99.99,,,-99.99,,2013-03-27 15:23:00,
2013-03-27 10:30:00,47.0,-99.9,30.44,NNE,20,10.0,-999.0,-999,-99.99,,,-99.99,,2013-03-27 15:30:00,
2013-03-27 10:53:00,46.0,-99.9,30.44,NNE,30,13.0,-999.0,-999,-99.99,,,-99.99,,2013-03-27 15:53:00,
2013-03-27 11:00:00,48.0,-99.9,30.43,North,10,7.0,-999.0,-999,-99.99,,,-99.99,,2013-03-27 16:00:00,
2013-03-27 11:13:00,47.0,-99.9,30.44,NNE,20,10.0,-999.0,-999,-99.99,,,-99.99,,2013-03-27 16:13:00,
2013-03-27 11:23:00,47.0,-99.9,30.44,NNE,20,10.0,-999.0,-999,-99.99,,,-99.99,,2013-03-27 16:23:00,
2013-03-27 11:30:00,48.0,-99.9,30.43,NNW,340,8.0,-999.0,-999,-99.99,,,-99.99,,2013-03-27 16:30:00,
2013-03-27 11:42:00,48.0,-99.9,30.43,North,10,7.0,-999.0,-999,-99.99,,,-99.99,,2013-03-27 16:42:00,
2013-03-27 11:52:00,48.0,-99.9,30.43,North,10,7.0,-999.0,-999,-99.99,,,-99.99,,2013-03-27 16:52:00,
2013-03-27 12:00:00,49.0,-99.9,30.42,NNW,330,7.0,-999.0,-999,-99.99,,,-99.99,,2013-03-27 17:00:00,
2013-03-27 12:12:00,48.0,-99.9,30.43,NNW,340,8.0,-999.0,-999,-99.99,,,-99.99,,2013-03-27 17:12:00,
2013-03-27 12:23:00,48.0,-99.9,30.43,NNW,340,8.0,-999.0,-999,-99.99,,,-99.99,,2013-03-27 17:23:00,
2013-03-27 12:30:00,49.0,-99.9,30.41,NNW,340,9.0,-999.0,-999,-99.99,,,-99.99,,2013-03-27 17:30:00,
2013-03-27 12:44:00,49.0,-99.9,30.42,NNW,330,7.0,-999.0,-999,-99.99,,,-99.99,,2013-03-27 17:44:00,
2013-03-27 12:52:00,49.0,-99.9,30.42,NNW,330,7.0,-999.0,-999,-99.99,,,-99.99,,2013-03-27 17:52:00,
2013-03-27 13:00:00,51.0,-99.9,30.40,North,360,8.0,-999.0,-999,-99.99,,,-99.99,,2013-03-27 18:00:00,
2013-03-27 13:12:00,49.0,-99.9,30.41,NNW,340,9.0,-999.0,-999,-99.99,,,-99.99,,2013-03-27 18:12:00,
2013-03-27 13:23:00,49.0,-99.9,30.41,NNW,340,9.0,-999.0,-999,-99.99,,,-99.99,,2013-03-27 18:23:00,
2013-03-27 13:30:00,51.0,-99.9,30.37,NNE,20,8.0,-999.0,-999,-99.99,,,-99.99,,2013-03-27 18:30:00,
2013-03-27 13:42:00,51.0,-99.9,30.40,North,360,8.0,-999.0,-999,-99.99,,,-99.99,,2013-03-27 18:42:00,
2013-03-27 13:53:00,51.0,-99.9,30.40,North,360,8.0,-999.0,-999,-99.99,,,-99.99,,2013-03-27 18:53:00,
2013-03-27 14:00:00,52.0,-99.9,30.35,NNE,30,10.0,-999.0,-999,-99.99,,,-99.99,,2013-03-27 19:00:00,
2013-03-27 14:22:00,51.0,-99.9,30.37,NNE,20,8.0,-999.0,-999,-99.99,,,-99.99,,2013-03-27 19:22:00,
2013-03-27 14:30:00,53.0,-99.9,30.33,NNE,20,9.0,-999.0,-999,-99.99,,,-99.99,,2013-03-27 19:30:00,
2013-03-27 14:52:00,52.0,-99.9,30.35,NNE,30,10.0,-999.0,-999,-99.99,,,-99.99,,2013-03-27 19:52:00,
2013-03-27 15:00:00,54.0,-99.9,30.31,NNE,30,9.0,-999.0,-999,-99.99,,,-99.99,,2013-03-27 20:00:00,
2013-03-27 15:30:00,55.0,-99.9,30.30,NNE,30,9.0,-999.0,-999,-99.99,,,-99.99,,2013-03-27 20:30:00,
2013-03-27 15:53:00,54.0,-99.9,30.31,NNE,30,9.0,-999.0,-999,-99.99,,,-99.99,,2013-03-27 20:53:00,
2013-03-27 16:00:00,56.0,-99.9,30.30,North,350,2.0,-999.0,-999,-99.99,,,-99.99,,2013-03-27 21:00:00,
2013-03-27 16:23:00,55.0,-99.9,30.30,NNE,30,9.0,-999.0,-999,-99.99,,,-99.99,,2013-03-27 21:23:00,
2013-03-27 16:30:00,53.0,-99.9,30.29,SW,220,8.0,-999.0,-999,-99.99,,,-99.99,,2013-03-27 21:30:00,
2013-03-27 16:44:00,56.0,-99.9,30.30,North,350,2.0,-999.0,-999,-99.99,,,-99.99,,2013-03-27 21:44:00,
2013-03-27 16:52:00,56.0,-99.9,30.30,North,350,2.0,-999.0,-999,-99.99,,,-99.99,,2013-03-27 21:52:00,
2013-03-27 17:00:00,53.0,-99.9,30.29,SW,220,10.0,-999.0,-999,-99.99,,,-99.99,,2013-03-27 22:00:00,
2013-03-27 17:23:00,53.0,-99.9,30.29,SW,220,8.0,-999.0,-999,-99.99,,,-99.99,,2013-03-27 22:23:00,
2013-03-27 17:30:00,52.0,-99.9,30.29,SW,220,15.0,-999.0,-999,-99.99,,,-99.99,,2013-03-27 22:30:00,
2013-03-27 17:43:00,53.0,-99.9,30.29,SW,220,10.0,-999.0,-999,-99.99,,,-99.99,,2013-03-27 22:43:00,
2013-03-27 17:53:00,53.0,-99.9,30.29,SW,220,10.0,-999.0,-999,-99.99,,,-99.99,,2013-03-27 22:53:00,
2013-03-27 18:00:00,52.0,-99.9,30.29,SW,230,15.0,-999.0,-999,-99.99,,,-99.99,,2013-03-27 23:00:00,
2013-03-27 18:22:00,52.0,-99.9,30.29,SW,220,15.0,-999.0,-999,-99.99,,,-99.99,,2013-03-27 23:22:00,
2013-03-27 18:30:00,52.0,-99.9,30.30,WSW,240,15.0,-999.0,-999,-99.99,,,-99.99,,2013-03-27 23:30:00,
2013-03-27 18:43:00,52.0,-99.9,30.29,SW,230,15.0,-999.0,-999,-99.99,,,-99.99,,2013-03-27 23:43:00,
2013-03-27 18:52:00,52.0,-99.9,30.29,SW,230,15.0,-999.0,-999,-99.99,,,-99.99,,2013-03-27 23:52:00,
2013-03-27 19:00:00,52.0,-99.9,30.29,SW,230,17.0,-999.0,-999,-99.99,,,-99.99,,2013-03-28 00:00:00,
2013-03-27 19:22:00,52.0,-99.9,30.30,WSW,240,15.0,-999.0,-999,-99.99,,,-99.99,,2013-03-28 00:22:00,
2013-03-27 19:30:00,51.0,-99.9,30.29,WSW,240,18.0,-999.0,-999,-99.99,,,-99.99,,2013-03-28 00:30:00,
2013-03-27 19:52:00,52.0,-99.9,30.29,SW,230,17.0,-999.0,-999,-99.99,,,-99.99,,2013-03-28 00:52:00,
2013-03-27 20:00:00,52.0,-99.9,30.29,WSW,250,16.0,-999.0,-999,-99.99,,,-99.99,,2013-03-28 01:00:00,
2013-03-27 20:12:00,51.0,-99.9,30.29,WSW,240,18.0,-999.0,-999,-99.99,,,-99.99,,2013-03-28 01:12:00,
2013-03-27 20:22:00,51.0,-99.9,30.29,WSW,240,18.0,-999.0,-999,-99.99,,,-99.99,,2013-03-28 01:22:00,
2013-03-27 20:30:00,52.0,-99.9,30.29,West,260,13.0,-999.0,-999,-99.99,,,-99.99,,2013-03-28 01:30:00,
2013-03-27 20:53:00,52.0,-99.9,30.29,WSW,250,16.0,-999.0,-999,-99.99,,,-99.99,,2013-03-28 01:53:00,
2013-03-27 21:00:00,52.0,-99.9,30.30,West,270,15.0,-999.0,-999,-99.99,,,-99.99,,2013-03-28 02:00:00,
2013-03-27 21:23:00,52.0,-99.9,30.29,West,260,13.0,-999.0,-999,-99.99,,,-99.99,,2013-03-28 02:23:00,
2013-03-27 21:30:00,52.0,-99.9,30.30,West,270,11.0,-999.0,-999,-99.99,,,-99.99,,2013-03-28 02:30:00,
2013-03-27 22:00:00,51.0,-99.9,30.30,West,280,9.0,-999.0,-999,-99.99,,,-99.99,,2013-03-28 03:00:00,
2013-03-27 22:22:00,52.0,-99.9,30.30,West,270,11.0,-999.0,-999,-99.99,,,-99.99,,2013-03-28 03:22:00,
2013-03-27 22:30:00,51.0,-99.9,30.30,West,280,9.0,-999.0,-999,-99.99,,,-99.99,,2013-03-28 03:30:00,
2013-03-27 22:53:00,51.0,-99.9,30.30,West,280,9.0,-999.0,-999,-99.99,,,-99.99,,2013-03-28 03:53:00,
2013-03-27 23:00:00,51.0,-99.9,30.31,West,280,11.0,-999.0,-999,-99.99,,,-99.99,,2013-03-28 04:00:00,
2013-03-27 23:23:00,51.0,-99.9,30.30,West,280,9.0,-999.0,-999,-99.99,,,-99.99,,2013-03-28 04:23:00,
2013-03-27 23:30:00,52.0,-99.9,30.31,West,260,10.0,-999.0,-999,-99.99,,,-99.99,,2013-03-28 04:30:00,
2013-03-27 23:42:00,51.0,-99.9,30.31,West,280,11.0,-999.0,-999,-99.99,,,-99.99,,2013-03-28 04:42:00,
2013-03-27 23:53:00,51.0,-99.9,30.31,West,280,11.0,-999.0,-999,-99.99,,,-99.99,,2013-03-28 04:53:00,